Regional Weather Roundup
Issued by NWS Wakefield, VA

Home | Current Version | Previous Version | Graphics & Text | Print | Product List | Glossary On
Versions: 1 2 3 4 5 6 7 8 9 10 11 12 13 14 15 16 17 18 19 20 21 22 23 24 25 26 27 28 29 30 31 32 33 34 35 36 37 38 39 40 41 42 43 44 45 46 47 48 49 50
000
ASUS41 KAKQ 091015
RWRAKQ

REGIONAL WEATHER ROUNDUP
NATIONAL WEATHER SERVICE WAKEFIELD VA
500 AM EST FRI DEC 09 2016

Note: "fair" indicates few or no clouds below 12,000 feet with no
significant weather and/or obstructions to visibility. * = Denotes
station may not report precipitation (e.g., rain,snow,etc.),
thunder or fog.

VAZ042-051-052>054-056-091100-
NORTHERN VIRGINIA

CITY           SKY/WX    TMP DP  RH WIND       PRES   REMARKS
WASH NATIONAL  PTCLDY    31  12  45 NW14      30.25S WCI  21
DULLES         PTCLDY    28  11  48 NW9       30.25R
FORT BELVOIR   PTCLDY    29  11  47 NW12      30.25S WCI  20
QUANTICO       CLEAR     30  13  49 CALM      30.28R
FREDERICKSBRG* PTCLDY    32  16  52 NW12G20   30.26R WCI  23
STAFFORD*      PTCLDY    29  13  50 NW10G22   30.30R WCI  20
WARRENTON      CLEAR     30  10  42 W17       30.24F WCI  18
CULPEPER*      PTCLDY    30  14  49 NW13G22   30.27S WCI  20
MANASSAS*      NOT AVBL
LEESBURG*      PTCLDY    30  18  59 NW20G25   30.25S WCI  18
WINCHESTER     CLEAR     27  10  50 W14G22    30.24S WCI  15
FRONT ROYAL*   FAIR      28  12  50 SW7G22    30.25S
LURAY*         CLOUDY    28  14  54 NW5G18    30.27S
$$

VAZ048-049-060>072-079>083-091100-
CENTRAL AND SOUTH CENTRAL VIRGINIA

CITY           SKY/WX    TMP DP  RH WIND       PRES   REMARKS
RICHMOND       CLEAR     29  15  56 N6        30.26R
CHESTERFIELD*  FAIR      28   5  37 NW8       30.27R
PETERSBURG*    CLEAR     30  16  56 NW3       30.27R
HANOVER        CLEAR     28  16  60 CALM      30.28R
TAPPAHANNOCK*  CLEAR     31  13  48 NW6       30.25R
QUINTON*       FAIR      30  17  57 CALM      30.26R
CHARLOTTSVILLE PTCLDY    31  11  43 NW9       30.26R
GORDONSVILLE*  FAIR      28  14  56 CALM      30.26R
ORANGE*          N/A     28  18  64 CALM      30.28R
LOUISA*        PTCLDY    32  18  55 NW3       30.24R
BUMPASS*       FAIR      27  16  63 CALM      30.26R
FARMVILLE*     CLEAR     31  17  56 CALM      30.26R
CREWE*         FAIR      26  19  72 CALM      30.25R
FORT PICKETT*  FAIR      29  10  44 NW3       30.25R
CHASE CITY*    FAIR      27  16  61 CALM      30.27R
CLARKSVILLE*   FAIR      30  18  59 NW5       30.27R
SOUTH HILL*    CLEAR     30  16  56 CALM      30.32R
LAWRENCEVILLE* FAIR      28  17  61 CALM      30.25S
EMPORIA*       CLEAR     30  18  59 CALM      30.28R
$$

VAZ088>098-091100-
SOUTHEAST VIRGINIA

CITY           SKY/WX    TMP DP  RH WIND       PRES   REMARKS
NORFOLK        CLEAR     36  20  52 N13G21    30.24R
VIRGINIA BEACH PTCLDY    35  20  54 N16       30.22R
NORFOLK NAVAL  CLEAR     34  19  54 N14       30.26R WCI  25
WEST POINT*    CLEAR     30  18  61 NW7       30.27R
SALUDA*        FAIR      32  18  56 NW15G28   30.23R WCI  22
NEWPORT NEWS   CLEAR     32  19  58 N8        30.25R
LANGLEY AFB    CLEAR     32  19  58 NW9       30.24R
FORT EUSTIS    CLEAR     33  18  54 N9        30.23R
WILLIAMSBURG*  CLEAR     32  21  64 CALM      30.26R
HR EXEC AP*    FAIR      28  18  64 CALM      30.23R
FRANKLIN*      CLEAR     31  19  60 NW3       30.27R
US460-WAKEFLD  CLEAR     30  18  60 CALM      30.25R
$$

VAZ020-022-025-037-045-091100-
WEST CENTRAL AND SOUTHWEST VIRGINIA

CITY           SKY/WX    TMP DP  RH WIND       PRES   REMARKS
STAUNTON*      CLOUDY    25  10  54 N7        30.29R
WAYNESBORO*    CLOUDY    25   9  50 NW8       30.25R
HOT SPRINGS VA CLOUDY    14   7  73 W16G30    30.09S WCI  -2
LYNCHBURG      CLEAR     29  13  51 VRB6      30.27R
DANVILLE       CLEAR     28  16  60 W3        30.28S
SOUTH BOSTON*  FAIR      31  14  51 NW7       30.29R
MARTINSVILLE   CLEAR     29  13  51 W6        30.31R
ROANOKE        MOCLDY    27  12  53 NW16      30.32R WCI  15
BLACKSBURG     FLURRIES  25  14  64 W13G22    30.29R WCI  13
DUBLIN*        FLURRIES  27  16  63 NW14G23   30.28R WCI  15
MARION*        CLOUDY    24  13  63 W15       30.28S WCI  11
HILLSVILLE*    CLOUDY    22  13  67 NW15G23   30.21R WCI   9
RICHLANDS*     FLURRIES  20  14  75 NW7G16    30.30R
WISE*          FLURRIES  21  14  73 NW9       30.33R
ABINGDON*      CLOUDY    27  15  61 N5        30.34R
$$

MDZ021>025-VAZ099-100-091100-
SOUTHERN MARYLAND AND THE DELMARVA PENINSULA

CITY           SKY/WX    TMP DP  RH WIND       PRES   REMARKS
PATUXENT RIVER CLEAR     30  15  53 NW17G26   30.23R WCI  18
BAY BRIDGE APT CLEAR     30  16  55 MISG      30.23S
LEONARDTOWN    PTCLDY    30  16  55 W7        30.25R
DOVER          CLEAR     30  16  56 W13       30.18R WCI  20
GEORGETOWN     CLEAR     31  17  56 NW6       30.19S
EASTON         CLEAR     32  14  48 NW17G25   30.25R WCI  21
CAMBRIDGE      PTCLDY    32  16  51 NW15G24   30.21R WCI  22
SALISBURY      CLEAR     30  17  58 NW10G18   30.19S WCI  21
OCEAN CITY     CLEAR     30  17  58 NW9G20    30.19S
WALLOPS ISLAND CLEAR     31  18  58 NW10      30.21R WCI  22
ACCOMACK*      CLEAR     34  18  50 NW15G24   30.21R WCI  25
$$

NCZ012>017-030>032-091100-
NORTH CENTRAL AND EASTERN NORTH CAROLINA

CITY           SKY/WX    TMP DP  RH WIND       PRES   REMARKS
ROANOKE RAPIDS FAIR      32  19  59 NW6       30.27R
RALEIGH        CLEAR     33  14  45 NW5       30.29R
ELIZABETH CITY CLEAR     31  22  69 NW6       30.24R
AHOSKIE*       CLEAR     30  20  65 CALM      30.27R
EDENTON*       CLEAR     33  24  68 CALM      30.25S
CURRITUCK*     CLEAR     34  22  60 NW5       30.24R
KILL DEVIL HLS CLEAR     38  25  58 NW8       30.20S
MANTEO         CLEAR     39  21  48 N14G20    30.22R
CAPE HATTERAS  CLEAR     42  27  55 VRB7      30.21R
TARBORO*       NOT AVBL
GOLDSBORO      CLEAR     34  16  47 NW3       30.27R
WASHINGTON     PTCLDY    32  20  62 W3        30.27R
GREENVILLE     CLEAR     34  19  55 CALM      30.28R
NEW BERN       CLEAR     36  19  50 N9        30.28R
WILMINGTON     CLEAR     37  21  52 N12       30.26F
$$

VAZ048-091100-
ELSEWHERE

CITY           SKY/WX    TMP DP  RH WIND       PRES   REMARKS
HARRISBURG PA  MOCLDY    30  18  60 W15       30.18S WCI  19
BALTIMORE      CLEAR     28  14  55 W15G23    30.21F WCI  16
ANNAPOLIS      CLEAR     32  16  51 W9        30.22S
ANDREWS AFB    PTCLDY    29  12  50 W18G25    30.21S WCI  16
PHILADELPHIA   CLEAR     31  15  52 W13       30.15F WCI  21
HENDERSON NC   CLEAR     28  13  54 CALM      30.27R
GREENSBORO     CLEAR     29  15  56 NW9       30.28R
ROCKY MOUNT    PTCLDY    33  18  53 NW7       30.28R
$$

VAZ100-091100-
MARINE

STATION/POSITION TIME  TEMP    WIND        PRES    WAVE   SWELL
                       AIR SEA DIR/SP/G            HT/PER HT/PER
                 (UTC) (F)     (DEG/KT/KT) (MB)    (FT/S) (FT/S)
BRANDYWINE LGT   0942   32     320/ 23/ 30   N/A
CAPE MAY NJ      0942   34 45  310/ 13/ 25 1021.1R
LEWES DE         0942   31 46  280/ 10/ 13 1022.0R
OCEAN-CITY-INLET 0942   33 49  320/ 11/ 15 1022.4S
WACHAPREAGUE VA  0942   34 46  310/  6/ 11 1022.8R
THOMAS POINT MD  1000   31 47  300/ 18/ 20   N/A
GOOSES REEF MD   1000   33 49  300/ 17/ 25 1024.7    2/ 3
COVE POINT MD    0942   31     340/ 18/ 24 1024.0R
SOLOMONS ISLAND  0942   33 49  300/ 10/ 21   N/A
BISHOPS HEAD MD  0942   33 39  320/ 19/ 26 1023.6R
PINEY POINT MD   0942          340/ 28/ 32   N/A
POTOMAC MD       0950   35     330/ 23/ 29 1023.1R
CAMBRIDGE MD     0942   33 45  300/ 22/ 29 1022.3S
LEWISETTA VA     0942   34 46  340/ 15/ 19 1023.5R
RAPPAHANNOCK LGT 0942          320/ 26/ 29 1023.4R
STINGRAY PT      0950   35     330/ 17/ 23 1023.8R
YORK RVR RNG VA  0942   35     340/ 16/ 20 1023.3R
YORKTOWN VA      0942   34 50  320/ 13/ 16 1023.7R
JAMESTOWN VA     0950   33     350/  8/ 14   N/A
DOMINION TERM VA 0942   36      40/  3/  7 1024.0R
KIPTOPEKE VA     0942      50  350/ 20/ 28   N/A
CHES BAY BRIDGE  0942   37 51  350/ 20/ 25 1023.4R
CAPE HENRY VA    0942   37     340/ 23/ 27   N/A
WILLOUBY STN VA  0942   35     340/ 12/ 13 1024.7R
S CRANEY ISL VA  0942   36     350/ 12/ 19 1023.6R
CAPE HENRY BUOY  0942      54                N/A     5/ 5
CAPE CHARLES BUO 0956      53                N/A     4/ 5
OFFSHORE WE BUOY 0921      55                N/A     7/ 6
64NM E OF VA BCH 0950   42 58  340/ 21/ 29 1021.5R   8/ 7
DUCK PIER NC     0942   40 53  330/ 17/ 19 1022.4R
44100 DUCK FRF   0935      56                N/A     5/ 5   2/11
OREGON INLET NC  0942   40 53  320/ 15/ 19 1022.8R
HATTERAS NC      0942   43 56  330/ 20/ 23 1022.5R
DIAMOND SHLS NC  0950   47 75  350/ 21/ 27 1022.2R   7/ 5   2/15
CAPE LOOKOUT NC  0900   42     340/ 22/ 26 1023.4R
$$



USA.gov is the U.S. government's official web portal to all federal, state and local government web resources and services.